Concord, NH

1:08 AM EST on February 28, 2017 (GMT -0500)
Concord Municipal

Weather History for KCON - September, 2013

Change the Weather History Date:

Sunday, September 15, 2013

  Actual Average Record
Temperature  
Mean Temperature 55 °F 60 °F  
Max Temperature 71 °F 73 °F 93 °F (1939)
Min Temperature 38 °F 48 °F 27 °F (1975)
Degree Days  
Heating Degree Days 10 6  
Month to date heating degree days 66 58  
Since 1 July heating degree days 96 106  
Cooling Degree Days 0 1  
Month to date cooling degree days 46 28  
Year to date cooling degree days 537 441  
Growing Degree Days 4 (Base 50)    
Moisture  
Dew Point 46 °F    
Average Humidity 67    
Maximum Humidity 100    
Minimum Humidity 33    
Precipitation  
Precipitation 0.00 in 0.11 in 2.76 in (1904)
Month to date precipitation 4.16 1.56  
Year to date precipitation 32.45 27.83  
Snow  
Snow 0.00 in 0.00 in 0.00 in (2002)
Month to date snowfall 0.0 0.0  
Since 1 July snowfall 0.0 0.0  
Since 1 September snowfall 0.0 0.0  
Snow Depth 0.00 in    
Sea Level Pressure  
Sea Level Pressure 30.10 in    
Wind  
Wind Speed 2 mph (SW)    
Max Wind Speed 10 mph    
Max Gust Speed 15 mph    
Visibility 9 miles    
Events      
T = Trace of Precipitation, MM = Missing Value Source: NWS Daily Summary

Daily Weather History Graph

Daily Weather History Graph

Search for Another Location

Airport or City:

Trip Planner

Search our weather history database for the weather conditions in past years. The results will help you decide how hot, cold, wet, or windy it might be!

Date:

Astronomy

Sep. 15, 2013 Rise Set
Actual Time 6:25 AM EDT 6:55 PM EDT
Civil Twilight 5:57 AM EDT 7:24 PM EDT
Nautical Twilight 5:23 AM EDT 7:57 PM EDT
Astronomical Twilight 4:48 AM EDT 8:32 PM EDT
Moon 4:25 PM EDT (9/15) 1:54 AM EDT (9/15)
Length of Visible Light 13h 27m
Length of Day
12h 29m
Waxing Gibbous, 82% of the Moon is Illuminated
Sep 15
Waxing Gibbous
Sep 19
Full
Sep 26
Last Quarter
Oct 4
New
Oct 11
First Quarter

Hourly Weather History & Observations

Time (EDT) Temp. Windchill Dew Point Humidity Pressure Visibility Wind Dir Wind Speed Gust Speed Precip Events Conditions
12:51 AM 46.0 °F - 46.0 °F 100% 30.06 in 10.0 mi Calm Calm - N/A   Clear
1:51 AM 44.1 °F - 43.0 °F 96% 30.08 in 10.0 mi Calm Calm - N/A   Clear
2:51 AM 44.1 °F - 42.1 °F 93% 30.08 in 9.0 mi Calm Calm - N/A   Clear
3:51 AM 42.1 °F - 41.0 °F 96% 30.10 in 0.8 mi Calm Calm - N/A   Clear
4:01 AM 42.8 °F - 42.8 °F 100% 30.09 in 2.5 mi Calm Calm - N/A   Clear
4:08 AM 42.8 °F - 42.8 °F 100% 30.10 in 10.0 mi Calm Calm - N/A   Clear
4:17 AM 42.8 °F - 42.8 °F 100% 30.10 in 3.0 mi Calm Calm - N/A   Scattered Clouds
4:51 AM 39.9 °F - 39.9 °F 100% 30.11 in 10.0 mi Calm Calm - N/A   Clear
5:51 AM 39.9 °F 37.8 °F 39.9 °F 100% 30.12 in 4.0 mi SSE 3.5 mph - N/A   Partly Cloudy
6:51 AM 39.9 °F - 39.0 °F 97% 30.14 in 10.0 mi Calm Calm - N/A   Clear
7:05 AM 41.0 °F - 39.2 °F 93% 30.14 in 10.0 mi Calm Calm - N/A   Scattered Clouds
7:14 AM 42.8 °F - 41.0 °F 93% 30.14 in 10.0 mi Calm Calm - N/A   Mostly Cloudy
7:22 AM 44.6 °F - 44.6 °F 100% 30.14 in 10.0 mi Calm Calm - N/A   Scattered Clouds
7:51 AM 46.9 °F - 46.9 °F 100% 30.14 in 10.0 mi Calm Calm - N/A   Clear
8:51 AM 53.1 °F - 48.9 °F 86% 30.16 in 10.0 mi West 3.5 mph - N/A   Clear
9:51 AM 57.9 °F - 48.9 °F 72% 30.16 in 10.0 mi WNW 3.5 mph - N/A   Clear
10:51 AM 62.1 °F - 46.0 °F 56% 30.15 in 10.0 mi Calm Calm - N/A   Clear
11:51 AM 64.9 °F - 45.0 °F 48% 30.14 in 10.0 mi Calm Calm - N/A   Clear
12:51 PM 66.9 °F - 45.0 °F 45% 30.12 in 10.0 mi WSW 6.9 mph - N/A   Clear
1:51 PM 69.1 °F - 44.1 °F 40% 30.10 in 10.0 mi South 6.9 mph - N/A   Clear
2:51 PM 69.1 °F - 46.0 °F 44% 30.08 in 10.0 mi Variable 4.6 mph - N/A   Clear
3:51 PM 70.0 °F - 39.9 °F 33% 30.06 in 10.0 mi WSW 6.9 mph - N/A   Clear
4:51 PM 69.1 °F - 48.0 °F 47% 30.05 in 10.0 mi WSW 8.1 mph - N/A   Clear
5:51 PM 64.0 °F - 50.0 °F 60% 30.06 in 10.0 mi SW 8.1 mph - N/A   Clear
6:51 PM 61.0 °F - 51.1 °F 70% 30.04 in 10.0 mi SSW 3.5 mph - N/A   Clear
7:51 PM 57.9 °F - 52.0 °F 81% 30.06 in 10.0 mi Calm Calm - N/A   Clear
8:51 PM 54.0 °F - 52.0 °F 93% 30.06 in 10.0 mi Calm Calm - N/A   Clear
9:51 PM 55.0 °F - 52.0 °F 89% 30.06 in 10.0 mi South 3.5 mph - N/A   Clear
10:51 PM 54.0 °F - 52.0 °F 93% 30.05 in 10.0 mi Calm Calm - N/A   Clear
11:51 PM 53.1 °F - 52.0 °F 96% 30.04 in 10.0 mi Calm Calm - N/A   Clear